Regional Weather Roundup
Issued by NWS Wakefield, VA

Home | Current Version | Previous Version | Text Only | Print | Product List | Glossary Off
Versions: 1 2 3 4 5 6 7 8 9 10 11 12 13 14 15 16 17 18 19 20 21 22 23 24 25 26 27 28 29 30 31 32 33 34 35 36 37 38 39 40 41 42 43 44

000
ASUS41 KAKQ 020610
RWRAKQ

REGIONAL WEATHER ROUNDUP
NATIONAL WEATHER SERVICE WAKEFIELD VA
200 AM EDT THU OCT 02 2014

Note: "fair" indicates few or no clouds below 12,000 feet with no
significant weather and/or obstructions to visibility. * = Denotes
station may not report precipitation (e.g., rain,snow,etc.),
thunder or fog.

VAZ042-051-052>054-056-020700-
NORTHERN VIRGINIA

CITY           SKY/WX    TMP DP  RH WIND       PRES   REMARKS
WASH NATIONAL  PTCLDY    65  58  78 NE5       30.09R
DULLES         PTCLDY    59  58  96 N5        30.09R FOG
FORT BELVOIR   MOCLDY    58  57  97 CALM      30.09R
QUANTICO       MOCLDY    62  59  90 NW5       30.09R
FREDERICKSBRG* MOCLDY    63  63 100 N3        30.06S
STAFFORD*      MOCLDY    59  59 100 CALM      30.12R
WARRENTON      CLOUDY    61  61 100 CALM      30.09R FOG
CULPEPER*      CLOUDY    63  61  94 CALM      30.10R FOG
MANASSAS*      CLOUDY    61  61 100 CALM      30.09R
LEESBURG*      MOCLDY    59  59 100 N3        30.10R FOG
WINCHESTER     MOCLDY    59  59 100 CALM      30.09R FOG
FRONT ROYAL*   MOCLDY    59  59 100 CALM      30.08S
LURAY*         MOCLDY    63  63 100 CALM      30.08S FOG
$$

VAZ048-049-060>072-079>083-020700-
CENTRAL AND SOUTH CENTRAL VIRGINIA...AND NORTH CENTRAL NORTH CAROLINA

CITY           SKY/WX    TMP DP  RH WIND       PRES   REMARKS
RICHMOND       CLOUDY    66  61  84 CALM      30.06S
CHESTERFIELD*  CLOUDY   N/A N/A N/A CALM      30.07S
PETERSBURG*    DRIZZLE   64  63  97 CALM      30.07R
HANOVER        CLOUDY    62  61  96 CALM      30.08R
TAPPAHANNOCK*  PTCLDY    59  58  94 CALM      30.07R
CHARLOTTSVILLE CLOUDY    65  63  93 NE3       30.08S
ORANGE*        CLOUDY    63  61  94 CALM      30.10R
LOUISA*        HVY RAIN  64  63  94 CALM      30.07R
FARMVILLE*     CLOUDY    66  64  94 CALM      30.05R
CREWE*         CLOUDY    64  62  94 CALM      30.06R
FORT PICKETT*  CLOUDY    65  63  94 CALM      30.07R
LUNENBURG*     CLOUDY    63  62  99 CALM      30.07R
SOUTH HILL*    MOCLDY    61  61 100 CALM      30.11S FOG
LAWRENCEVILLE* CLOUDY    62  62  99 CALM      30.06S
ROANOKE RAPIDS PTCLDY    59  59 100 CALM      30.06S FOG
RALEIGH        PTCLDY    62  60  93 CALM      30.07R
$$

VAZ088>098-020700-
SOUTHEAST VIRGINIA

CITY           SKY/WX    TMP DP  RH WIND       PRES   REMARKS
NORFOLK        CLEAR     64  61  90 CALM      30.05R
VIRGINIA BEACH CLEAR     64  59  83 CALM      30.04R
NORFOLK NAVAL  PTCLDY    66  62  87 CALM      30.06R
WEST POINT*    MOCLDY    60  58  92 CALM      30.07S
NEWPORT NEWS   PTCLDY    66  61  84 CALM      30.05S
LANGLEY AFB    PTCLDY    63  63 100 SE2       30.06R
FORT EUSTIS    MOCLDY    63 N/A N/A CALM      30.04R
WILLIAMSBURG*  CLEAR     64  64 100 CALM      30.06S
HR EXEC AP*    CLEAR     57  55  94 CALM      30.08R
FRANKLIN*      CLOUDY    63 N/A N/A CALM      30.06S
WAKEFIELD      MOCLDY    64  62  93 CALM      30.06R FOG
$$

VAZ020-022-025-037-045-020700-
WEST CENTRAL AND SOUTHWEST VIRGINIA

CITY           SKY/WX    TMP DP  RH WIND       PRES   REMARKS
STAUNTON*      FOG       61  59  94 CALM      30.10F VSB<1/4
HOT SPRINGS VA CLEAR     55  41  59 W6        30.17S
LYNCHBURG      CLOUDY    62  62 100 CALM      30.09S
DANVILLE       FOG       60  59  96 CALM      30.07S VSB 1/4
SOUTH BOSTON*  NOT AVBL
MARTINSVILLE   FOG       56  56 100 CALM      30.10S VSB 1/2
ROANOKE        CLEAR     60  58  92 CALM      30.10S FOG
BLACKSBURG     FOG       54  54 100 CALM      30.13S VSB 1/4
DUBLIN*        CLEAR     54  53  99 CALM      30.12S
MARION*        CLEAR     51  50  95 CALM      30.15S FOG
HILLSVILLE*    PTCLDY    56  56  98 SW3       30.14R FOG
RICHLANDS*     CLEAR     60  54  79 CALM      30.12S
WISE*          CLEAR     59  52  77 CALM      30.12S
ABINGDON*      CLEAR     57  55  92 CALM      30.10S
$$

MDZ021>025-VAZ099-100-020700-
SOUTHERN MARYLAND AND THE DELMARVA PENINSULA

CITY           SKY/WX    TMP DP  RH WIND       PRES   REMARKS
PATUXENT RIVER MOCLDY    64  61  90 E5        30.07R
BAY BRIDGE APT   N/A     63  59  88 CALM      30.08S
LEONARDTOWN    CLEAR     55  54  94 CALM      30.09R
DOVER          CLOUDY    62  62 100 NW3       30.05S
GEORGETOWN     MOCLDY    59  56  89 CALM      30.07S
EASTON         MOCLDY    62  62 100 CALM      30.11S FOG
CAMBRIDGE      PTCLDY    59  55  88 CALM      30.07R
SALISBURY      CLEAR     59  55  87 CALM      30.06S
OCEAN CITY     CLEAR     60  58  92 N5        30.06R
WALLOPS ISLAND MOCLDY    61  59  93 N7        30.06R
ACCOMACK*      FOG       55  54  94 CALM      30.06R VSB 1
$$

NCZ012>017-030>032-020700-
EASTERN NORTH CAROLINA

CITY           SKY/WX    TMP DP  RH WIND       PRES   REMARKS
ELIZABETH CITY PTCLDY    66  62  87 E5        30.05R
AHOSKIE*       MOCLDY    60  59  96 CALM      30.07R
EDENTON*       CLEAR     61  60  98 CALM      30.05S
CURRITUCK*     PTCLDY    66  61  83 CALM      30.05S
KILL DEVIL HLS CLEAR     67  62  82 NE3       30.02S
MANTEO         PTCLDY    67  62  83 NE6       30.04S
CAPE HATTERAS  CLEAR     66  63  90 NE6       30.03S
TARBORO*       CLOUDY    59  58  97 CALM      30.07R FOG
GOLDSBORO      CLEAR     63  62  98 CALM      30.04R
WASHINGTON     CLEAR     62  61  97 CALM      30.06S
GREENVILLE       N/A     63  63 100 CALM      30.07S FOG
NEW BERN       FOG       64  63  94 CALM      30.06S VSB 3/4
WILMINGTON     CLEAR     64  63  96 CALM      30.04R
$$

VAZ048-020700-
ELSEWHERE

CITY           SKY/WX    TMP DP  RH WIND       PRES   REMARKS
HARRISBURG PA  PTCLDY    59  57  93 NW3       30.09S
BALTIMORE      PTCLDY    60  57  89 CALM      30.08S
ANNAPOLIS      MOCLDY    64  60  87 CALM      30.08R
ANDREWS AFB    MOCLDY    60  60  99 NE3       30.08R
WILMINGTON DE  CLEAR     58  56  93 NE6       30.09R
PHILADELPHIA   CLOUDY    65  57  75 N3        30.09R
WILDWOOD NJ*   CLOUDY    61  55  82 N5        30.07S
ATLANTIC CITY  MOCLDY    60  58  92 N7        30.07R
HENDERSON NC   PTCLDY    60  59  96 CALM      30.06S FOG
GREENSBORO     MOCLDY    64  62  93 N5        30.07R FOG
ROCKY MOUNT    CLEAR     59  58  96 CALM      30.06S FOG
FAYETTEVILLE   PTCLDY    65  63  93 CALM      30.05R FOG
CHARLOTTE      PTCLDY    68  63  84 SE6       30.06S
$$

VAZ100-020700-
MARINE

STATION/POSITION TIME  TEMP    WIND        PRES    WAVE   SWELL
                       AIR SEA DIR/SP/G            HT/PER HT/PER
                 (UTC) (F)     (DEG/KT/KT) (MB)    (FT/S) (FT/S)
44066 TX TWR #4  0600   65 70   20/ 21/ 25 1014.7F   8/ 7   2/12
CAPE MAY NJ      0600   62 73   10/  1/  3 1017.5S
LEWES DE         0600   65 70   50/ 14/ 15 1017.7R
15NM E FENWICK I 0600   64 70              1017.3R   4/ 7
OCEAN-CITY-INLET 0600   65 71  360/ 10/ 12 1017.2R
WACHAPREAGUE VA  0600   62 73  330/  3/  4 1017.6R
THOMAS POINT MD  0600   65 72   90/  8/  8 1019.5R
GOOSES REEF MD   0600   66     120/  8/ 10 1018.7S
COVE POINT MD    0600   65     100/ 11/ 12 1018.1S
SOLOMONS ISLAND  0600      72                N/A
BISHOPS HEAD MD  0600   65 72   50/  6/  8 1017.7S
PINEY POINT MD   0600           80/  4/  5   N/A
POTOMAC MD       0600   68     110/  8/  8 1017.2S
CAMBRIDGE MD     0600   65 71   70/  6/  8 1018.0R
LEWISETTA VA     0600   65 72  250/  5/  6 1017.6R
RAPPAHANNOCK LGT 0600           60/  5/  5 1018.2S
STINGRAY PT      0600   69     100/  6/  8   N/A
YORK RVR RNG VA  0600   70      80/  6/  8 1017.0F
YORKTOWN VA      0600   70 73   50/  6/  7 1017.1S
JAMESTOWN VA     0600   66      80/  4/  4   N/A
DOMINION TERM VA 0600   69      50/  2/  2 1017.6S
KIPTOPEKE VA     0600      76   40/  4/  6   N/A
CHES BAY BRIDGE  0600   69 73   40/  7/  9 1016.9S
CHESAPEAKE LGHT  0500   69      40/ 10/ 11 1017.8F
WILLOUBY STN VA  0600   69      30/  4/  6 1016.2S
S CRANEY ISL VA  0600           CALM  /  1 1017.3S
CAPE HENRY BUOY  0600      73                N/A     4/ 7   2/13
1ST LANDING BUOY 0600   70      50/  8/ 10 1017.0R
CAPE CHARLES BUO 0600      73                N/A     4/ 7   3/ 7
OFFSHORE WE BUOY 0600      72                N/A     4/ 7   3/ 7
64NM E OF VA BCH 0600   69 71  360/ 14/ 16 1016.3R   5/ 7   3/ 7
DUCK PIER NC     0600   69 73   50/  8/ 11 1016.4S
44100 DUCK FRF   0600      72                N/A     4/ 7
44056 DUCK FRF   0600                        N/A     4/ 8   2/13
OREGON INLET NC  0600   68 74   10/  8/ 12 1016.7F
HATTERAS NC      0600   69 74   50/  7/ 11 1017.2S
DIAMOND SHLS NC  0600   70      10/ 14/ 16 1016.5S   3/ 7   2/ 7
CAPE LOOKOUT NC  0500   71      30/  8/ 11 1016.8R
$$


USA.gov is the U.S. government's official web portal to all federal, state and local government web resources and services.